User: anonymous   Login
Location: Writing-on-Stone Provincial Park
(49.0825°N, 111.6163°W)
Time: 13:40:56
(UTC-07:00)
Language:

BREEZE-M DEB (TANK) - Orbit

View from above orbital plane
View from above orbital plane
View from above satellite
View from above satellite

Ground track
Ground track

The orbit data is extracted from the following two-line orbital elements,

1 29649U 06056B   14330.19863068  .00003201  00000-0  53159-3 0   598
2 29649 049.4677 193.6376 5410923 301.0000 299.8114 04.95452735141253
Epoch (UTC): 26 November 2014 04:46:01
Eccentricity: 0.5410923
inclination: 49.4677°
perigee height: 292 km
apogee height: 16021 km
right ascension of ascending node: 193.6376°
argument of perigee: 301.0000°
revolutions per day: 4.95452735
mean anomaly at epoch: 299.8114°
orbit number at epoch: 14125

The dashed part of the orbit path shows where the satellite is in the earth's shadow,  

DLR